SCP
0 0 0 0 0 0 0 0 0 0 0 0 0 0 0 0 1 1 1 1 1 1 1 1 1 1 1 1 1 1 1 1 1 1 1 1 1 1 1 1 1 1 1 1
0 0 0 0 0 0 0 0 0 0 0 0 0 0 0 0 1 1 1 1 1 1 1 1 1 1 1 1 1 1 1 1 1 1 1 1 1 1 1 1 1 1 1 1
0 0 0 0 0 0 0 0 0 0 0 0 0 0 0 1 1 1 1 1 1 1 1 1 1 1 1 1 1 1 1 1 1 1 1 1 1 1 1 1 1 1 1 1
0 0 0 0 0 0 0 0 0 0 0 0 0 0 0 1 1 1 1 1 1 1 1 1 1 1 1 1 1 1 1 1 1 1 1 1 1 1 1 1 1 1 1 1
0 0 0 0 0 0 0 0 0 0 0 0 0 0 0 1 1 1 1 1 1 1 1 1 1 1 1 1 1 1 1 1 1 1 1 1 1 1 1 1 1 1 1 1
0 0 0 0 0 0 0 0 0 0 0 0 0 0 0 1 1 1 1 1 1 1 1 1 1 1 1 1 1 1 1 1 1 1 1 1 1 1 1 1 1 1 1 1
0 0 0 0 0 0 0 0 0 0 0 0 0 0 0 0 0 0 1 1 1 1 1 1 1 1 1 1 1 1 1 1 1 1 1 1 1 1 1 1 1 1 1 1
0 0 0 0 0 0 0 0 0 0 0 0 0 0 0 0 0 0 0 0 1 1 1 1 1 1 1 1 1 1 1 1 1 1 1 1 1 1 1 1 1 1 1 1
0 0 0 0 0 0 0 0 0 0 0 0 0 0 0 0 0 0 0 0 1 1 1 1 1 1 1 1 1 1 1 1 1 1 1 0 1 1 1 1 1 1 1 1
0 0 0 0 0 0 0 0 0 0 0 0 0 0 0 0 0 0 0 0 1 1 1 1 1 1 1 1 1 1 1 1 1 0 0 0 0 1 1 1 1 1 1 1
0 0 0 0 0 0 0 0 0 0 0 0 0 0 0 0 1 1 0 0 1 1 1 1 1 1 1 1 1 1 1 1 0 0 0 0 0 0 0 0 0 0 0 0
0 0 0 0 0 0 0 0 0 0 0 0 0 0 0 0 0 1 1 1 1 1 1 1 1 1 1 1 1 1 1 0 0 0 0 0 0 0 0 0 0 0 0 0
0 0 0 0 0 0 0 0 0 0 0 0 0 0 0 0 0 0 0 0 0 0 0 0 0 1 1 0 0 0 0 0 0 0 0 0 0 0 0 0 0 0 0 0
0 0 0 0 0 0 0 0 0 0 0 0 0 0 0 0 0 0 0 0 0 0 0 0 0 0 0 0 0 0 0 0 0 0 0 0 0 0 0 0 0 0 0 0
0 0 0 0 0 0 0 0 0 0 0 0 0 0 0 0 0 0 0 0 0 0 0 0 0 0 0 0 0 0 0 0 0 0 0 0 0 0 0 0 0 0 0 0
0 0 0 0 0 0 0 0 0 0 0 0 0 0 0 0 0 0 0 0 0 0 0 0 0 0 0 0 0 0 0 0 0 0 0 0 0 0 0 0 0 0 0 0
0 0 0 0 0 0 0 0 0 0 0 0 0 0 0 0 0 0 0 0 0 0 0 0 0 0 0 0 0 0 0 0 0 0 0 0 0 0 0 0 0 0 0 0
0 0 0 0 0 0 0 0 0 0 0 0 0 0 0 0 0 0 0 0 0 0 0 0 0 0 0 0 0 0 0 0 0 0 0 0 0 0 0 0 0 0 0 0
0 0 0 0 0 0 0 0 0 0 0 0 0 0 0 0 0 0 0 0 0 0 0 0 0 0 0 0 0 0 0 0 0 0 0 0 0 0 0 0 0 0 0 0
0 0 0 0 0 0 0 0 0 0 0 0 0 0 0 0 0 0 0 0 0 0 0 0 0 0 0 0 0 0 0 0 0 0 0 0 0 0 0 0 0 0 0 0
0 0 0 0 0 0 0 0 0 0 0 0 0 0 0 0 0 0 0 0 0 0 0 0 0 0 0 0 0 0 0 0 0 0 0 0 0 0 0 0 0 0 0 0
0 0 0 0 0 0 0 0 0 0 0 0 0 0 0 0 0 0 0 0 0 0 0 0 0 0 0 0 0 0 0 0 0 0 0 0 0 0 0 0 0 0 0 0
0 0 0 0 0 0 0 0 0 0 0 0 0 0 0 0 0 0 0 0 0 0 0 0 0 0 0 0 0 0 0 0 0 0 0 0 0 0 0 0 0 0 0 0
0 0 0 0 0 0 0 0 0 0 0 0 0 0 0 0 0 0 0 0 0 0 0 0 0 0 0 0 0 0 0 0 0 0 0 0 0 0 0 0 0 0 0 0
0 0 0 0 0 0 0 0 0 0 0 0 0 0 0 0 0 0 0 0 0 0 0 0 0 0 0 0 0 0 0 0 0 0 0 0 0 0 0 0 0 0 0 0
0 0 0 0 0 0 0 0 0 0 0 0 0 0 0 0 0 0 0 0 0 0 0 0 0 0 0 0 0 0 0 0 0 0 0 0 0 0 0 0 0 0 0 0
0 0 0 0 0 0 0 0 0 0 0 0 0 0 0 0 0 0 0 0 0 0 0 0 0 0 0 0 0 0 0 0 0 0 0 0 0 0 0 0 0 0 0 0
Wind_Speed
14 14 13 13 13 12 12 12 12 9 6 2 2 3 4 4 4 3 2 2 2 2 1 1 1 2 1 1 1 2 1 2 2 1 1 1 2 2 2 3 4 3 4 4
13 14 13 13 12 11 11 11 10 7 5 3 3 3 4 4 3 3 2 1 1 1 1 0 0 0 1 2 2 2 2 2 2 2 2 2 2 3 3 3 3 3 4 4
12 12 12 11 9 9 8 6 6 6 5 5 5 5 5 4 4 3 2 1 1 0 0 0 1 1 2 2 2 2 2 2 2 2 2 2 3 3 3 3 3 3 3 3
10 10 11 5 4 5 5 4 6 5 4 4 4 5 6 6 5 4 3 3 2 1 1 1 1 2 2 2 2 2 2 2 2 2 2 3 3 2 2 2 3 3 3 3
7 8 8 5 4 5 4 4 7 6 6 6 6 5 5 6 6 5 4 3 2 2 2 0 1 1 1 1 2 2 2 2 2 2 2 3 3 3 2 2 3 3 3 4
8 8 7 3 5 5 4 2 6 6 6 6 6 4 3 5 5 5 5 3 3 2 2 1 1 0 1 2 2 2 2 2 2 3 3 3 3 3 3 3 4 4 4 4
8 8 3 5 6 5 3 3 6 6 6 6 6 5 4 5 4 4 3 2 3 2 2 2 1 1 2 2 2 2 2 2 3 3 3 3 3 3 3 3 3 3 4 4
5 6 1 6 5 4 4 4 6 7 6 5 4 4 5 5 5 4 4 3 2 2 2 2 2 1 2 2 2 2 2 2 2 3 4 3 2 3 3 3 3 4 4 4
1 1 2 4 3 3 3 4 4 5 6 5 5 5 5 5 4 4 4 3 3 2 2 1 1 2 2 2 1 1 1 1 2 3 3 2 3 3 3 3 3 3 3 3
2 1 1 3 3 3 3 4 4 4 5 5 5 6 5 5 4 4 4 3 3 3 3 3 2 2 2 2 1 1 1 1 2 2 2 2 2 3 3 3 3 3 3 3
2 2 3 4 5 4 5 4 4 4 4 5 5 5 5 5 5 4 4 3 3 3 3 3 3 2 2 2 1 2 2 2 2 3 3 2 2 2 3 2 2 2 2 1
3 3 3 4 4 4 4 5 5 5 5 5 5 5 5 4 4 4 4 3 3 4 4 3 2 2 2 2 2 1 2 2 2 2 2 3 3 2 1 1 1 2 2 1
3 3 3 4 5 5 4 5 5 6 5 4 3 4 4 4 3 3 4 4 4 4 3 2 3 2 2 2 2 2 2 2 2 3 3 3 3 3 2 1 1 2 2 2
2 2 3 3 4 4 4 4 4 5 4 3 3 3 4 3 4 4 4 4 4 4 3 2 2 2 1 1 1 2 3 3 3 3 3 3 3 2 2 2 2 1 1 3
3 3 3 3 3 3 4 4 3 3 4 3 2 3 4 3 3 4 4 4 3 4 4 3 3 2 1 1 1 1 2 2 2 2 2 2 2 1 1 2 1 1 0 1
3 3 3 3 2 3 3 4 3 3 4 4 3 3 3 3 3 3 4 4 3 4 4 3 3 3 2 2 2 2 1 2 2 2 2 2 1 1 1 1 1 1 1 1
3 3 3 3 3 3 3 4 4 3 4 4 4 3 3 3 3 3 4 4 3 3 3 3 3 3 3 2 3 2 2 2 2 2 2 2 2 1 1 1 1 1 0 1
3 3 3 3 3 3 3 3 4 4 4 4 4 3 3 2 3 3 3 4 3 4 4 4 4 4 3 3 2 2 2 2 2 2 2 1 1 1 1 1 1 1 1 1
1 2 2 2 2 3 2 2 3 3 3 4 4 3 3 3 2 3 3 3 4 3 4 4 3 3 4 4 3 2 2 2 2 2 2 1 1 1 1 1 1 0 0 1
2 2 2 2 2 2 2 2 2 3 3 3 3 3 3 3 3 2 3 2 2 2 3 3 3 3 3 4 4 3 3 2 1 1 2 2 1 1 1 1 1 1 1 0
1 1 2 2 2 2 1 1 2 3 3 3 2 2 2 2 2 2 2 2 2 2 2 2 2 3 4 4 4 3 3 2 1 1 1 1 1 2 2 2 2 1 1 1
1 2 2 1 1 2 1 1 2 3 3 3 2 2 2 2 2 2 2 2 2 2 2 2 2 4 5 5 3 3 3 3 3 2 1 1 1 1 2 2 2 2 1 1
1 2 2 1 1 1 2 2 2 2 2 2 2 2 2 2 2 2 2 2 2 2 2 2 3 4 5 4 3 3 3 3 3 2 2 2 2 1 1 2 1 1 1 1
1 1 1 1 1 1 2 3 2 2 2 2 1 1 1 1 1 2 2 3 2 1 2 2 2 4 4 3 3 3 2 3 2 2 2 2 2 1 1 1 1 1 1 2
1 2 1 2 2 1 1 2 2 2 2 1 2 2 1 1 1 2 2 2 1 1 1 1 2 4 3 2 3 3 3 3 3 3 2 2 2 1 1 2 2 2 2 2
2 2 1 1 1 1 2 2 2 1 1 1 1 1 1 1 1 1 0 0 0 1 2 1 1 2 2 2 2 2 2 2 2 2 2 2 2 2 2 2 3 2 2 2
2 1 2 2 2 2 2 2 1 1 1 1 1 1 2 2 1 1 1 1 2 1 1 2 1 1 2 2 2 2 2 2 2 2 3 3 3 3 3 3 3 3 3 3
Wind_Direction
280 287 288 287 286 285 275 273 274 284 295 312 340 346 6 19 18 1 40 84 98 99 97 73 78 100 115 215 183 159 168 200 194 203 216 224 226 228 231 229 219 216 221 219
284 281 282 281 277 277 276 276 279 287 301 340 30 29 24 15 8 344 16 8 84 104 106 143 107 162 237 223 201 172 187 218 205 198 212 222 223 230 231 234 226 220 221 225
280 282 281 279 293 288 285 302 310 304 326 8 9 13 16 13 5 340 332 311 315 21 41 274 211 210 236 240 203 197 207 223 207 204 212 215 224 223 225 235 225 217 223 224
279 282 271 286 326 319 321 342 6 356 6 28 8 5 23 9 359 345 340 338 340 340 313 290 258 231 225 228 216 213 208 222 230 221 220 219 219 222 226 226 224 217 220 227
273 274 271 286 331 347 332 336 16 6 2 3 6 351 23 14 7 4 2 344 329 322 302 276 256 249 230 240 238 241 229 234 247 236 233 233 220 214 218 222 227 222 221 226
270 278 282 335 357 343 312 303 16 14 1 349 342 328 10 17 15 7 360 346 349 353 343 337 338 291 229 239 236 254 259 255 265 256 240 237 232 221 219 219 225 225 226 225
262 268 279 11 352 336 306 6 6 6 354 350 352 340 348 0 16 9 348 343 347 350 341 342 350 333 277 277 256 253 253 252 258 258 248 237 226 227 227 225 225 226 227 230
277 277 322 16 4 15 19 0 359 5 5 4 354 352 356 359 1 357 346 345 350 340 342 357 343 309 284 280 273 257 254 262 270 264 253 238 227 234 230 223 228 230 224 227
324 323 28 22 41 32 4 357 358 355 353 349 347 349 351 354 351 343 333 338 343 335 339 342 325 307 291 297 307 283 270 260 264 265 254 235 231 237 234 227 231 233 224 225
267 192 329 350 12 14 6 354 352 350 345 347 344 343 347 349 347 344 342 345 346 337 331 334 335 316 311 319 342 315 270 249 248 248 246 238 248 246 244 242 238 233 232 229
301 323 337 2 0 0 356 346 345 347 348 348 343 342 346 349 350 352 347 341 337 331 325 328 331 323 319 325 331 316 293 267 258 246 238 224 247 257 244 254 246 236 252 237
308 341 327 330 340 345 341 335 335 337 339 343 344 347 351 354 354 349 343 341 336 325 326 331 326 314 315 323 322 304 292 291 284 267 246 230 224 238 10 224 173 153 146 160
317 327 329 326 331 337 331 331 337 337 332 337 351 351 348 352 352 344 337 335 329 322 324 316 313 311 318 327 325 324 316 305 286 277 263 246 230 218 214 215 212 209 199 184
340 316 306 312 316 324 328 327 331 334 331 346 358 351 349 348 345 340 333 333 330 326 326 316 316 319 324 327 335 329 308 294 282 276 270 260 248 232 230 218 214 210 210 202
286 279 286 296 309 314 315 315 325 332 341 343 355 341 337 337 337 335 330 328 329 333 336 332 328 329 325 302 310 299 294 297 302 301 293 285 286 276 260 246 231 199 134 129
285 288 285 291 304 318 326 324 322 334 345 343 339 337 335 338 333 329 333 335 334 335 339 340 340 342 339 323 307 280 288 308 306 305 297 298 300 294 283 269 242 204 200 173
276 282 283 286 300 313 324 325 326 336 336 328 327 333 345 341 343 349 347 344 344 340 350 2 350 337 324 313 302 291 288 299 283 279 277 273 268 269 267 263 251 239 184 125
257 266 277 284 292 305 316 327 329 330 333 339 344 343 347 349 347 350 351 353 358 7 11 14 3 336 320 322 318 307 300 297 295 286 288 297 293 287 286 294 283 281 141 152
261 269 278 283 290 299 301 312 318 328 346 347 345 352 1 348 349 351 1 6 1 6 7 8 354 333 339 348 334 296 279 268 277 289 290 278 264 291 304 294 291 323 253 203
233 247 257 261 275 286 282 313 323 326 338 344 353 10 8 358 2 3 7 15 10 357 348 356 346 342 343 357 348 312 294 284 287 296 304 315 341 347 346 357 18 5 344 337
246 261 268 273 296 299 298 327 322 323 336 344 347 357 3 4 0 358 353 357 22 11 351 1 350 346 344 338 317 308 327 345 343 327 326 347 10 12 16 13 5 354 351 357
300 285 284 289 336 332 336 309 305 312 323 323 326 341 346 345 353 25 43 17 17 33 0 359 11 358 342 326 316 329 354 357 347 357 10 5 16 26 13 4 352 350 353 355
327 325 322 314 299 304 307 307 307 315 317 319 334 342 350 354 353 5 21 31 26 27 357 7 5 346 333 324 327 335 348 348 345 0 21 21 19 17 14 359 357 354 342 326
290 289 294 299 290 287 307 311 312 302 305 317 338 342 347 2 20 37 61 75 49 25 6 33 349 317 302 306 322 331 343 349 351 8 22 17 17 26 26 13 6 8 7 349
261 264 258 272 275 271 280 276 270 274 285 333 352 358 21 44 34 44 60 64 71 298 299 237 258 278 282 311 327 345 358 13 8 7 8 3 2 11 18 16 12 7 13 22
246 236 233 255 289 295 273 270 272 270 294 328 352 342 359 38 42 40 19 333 332 292 309 318 266 246 290 324 352 4 1 13 10 358 2 8 17 20 23 25 23 24 29 38
238 210 215 231 239 259 272 275 286 311 322 348 24 4 6 20 29 11 345 343 348 334 323 323 325 336 347 351 12 15 7 8 7 5 12 24 25 21 19 21 25 30 35 42